Terminal Aerodrome Forecast
Issued by NWS Shreveport, LA

Current Version | Previous Version | Text Only | Print | Product List | Glossary On
Versions: 1 2 3 4 5 6 7 8 9 10 11 12 13 14 15 16
000
FTUS44 KSHV 061748
TAFTYR
TAF
KTYR 061748Z 0618/0718 16013G16KT P6SM OVC015
      TEMPO 0618/0620 SCT025 BKN040
     FM062000 16012KT P6SM VCTS SCT020 BKN035CB OVC050
      TEMPO 0621/0623 5SM -TSRA BR BKN015 OVC030CB
     FM062300 16013KT 6SM -TSRA BKN025CB OVC040
     FM070000 15009KT P6SM VCTS SCT030CB BKN045
     FM070100 14006KT P6SM SCT035 BKN045
     FM070700 16007KT P6SM OVC010
     FM071100 15008KT 4SM BR OVC007
     FM071700 17011G17KT P6SM OVC015=

USA.gov is the U.S. government's official web portal to all federal, state and local government web resources and services.